Regional Weather Roundup
Issued by NWS Portland, ME

Home | Current Version | Previous Version | Text Only | Print | Product List | Glossary On
Versions: 1 2 3 4 5 6 7 8 9 10 11 12 13 14 15 16 17 18 19 20 21 22 23 24 25 26 27 28 29 30 31 32 33 34 35 36 37 38 39 40 41 42 43 44 45 46 47 48 49 50
000
ASUS41 KGYX 012305
RWRGYX
WEATHER ROUNDUP FOR MAINE AND NEW HAMPSHIRE
NATIONAL WEATHER SERVICE GRAY ME
700 PM EDT MON SEP 01 2014

MEZ002-005-006-010-012-015-018-020-021-024-026-027-029-020000-
MAINE

CITY           SKY/WX    TMP DP  RH WIND       PRES   REMARKS
PORTLAND       CLEAR     74  66  76 S7        29.90S
SANFORD        CLEAR     75  66  73 S3        29.92S
BAR HARBOR     CLOUDY    72  70  94 CALM      29.93S
WISCASSET      CLEAR     74  67  78 CALM      29.92S
ROCKLAND       CLEAR     72  66  83 CALM      29.90S
FRYEBURG       CLEAR     77  66  68 SW5       29.90S
LEWISTONAUBURN CLEAR     75  66  73 S8        29.91S
AUGUSTA        LGT RAIN  74  68  81 N7        29.93R
WATERVILLE     CLOUDY    72  70  94 CALM      29.88S
BANGOR         PTCLDY    73  67  81 S6        29.92S
GREENVILLE       N/A     68  65  90 E5        29.94R
MILLINOCKET    CLEAR     71  69  93 CALM      29.93S
HOULTON        MOCLDY    67  63  87 E7        29.94R
PRESQUE ISLE   CLOUDY    72  63  73 SE10G16   29.93R
FRENCHVILLE    CLOUDY    67  64  90 E6        29.94F
CARIBOU        CLOUDY    71  64  78 E8        29.94R
$$

NHZ002-005-008-009-011-012-014-020000-
NEW HAMPSHIRE

CITY           SKY/WX    TMP DP  RH WIND       PRES   REMARKS
PORTSMOUTH     PTCLDY    75  68  77 SE8       29.89F
ROCHESTER      CLEAR     78  68  71 S5        29.90F
NASHUA         PTCLDY    83  68  60 CALM      29.91S
MANCHESTER     PTCLDY    85  64  49 W3        29.89S
CONCORD        CLEAR     82  65  56 CALM      29.91S
LACONIA        CLEAR     79  66  65 CALM      29.90S
PLYMOUTH       FAIR      76  69  78 CALM      29.91S
BERLIN         NOT AVBL
WHITEFIELD     CLEAR     78  63  59 SW3       29.93S
JAFFREY        CLEAR     78  67  68 CALM      29.96S
LEBANON        CLEAR     76  67  73 CALM      29.91S
MT WASHINGTON  NOT AVBL
$$

VTZ005-007-008-020000-
VERMONT

CITY           SKY/WX    TMP DP  RH WIND       PRES   REMARKS
ST JOHNSBURY     N/A     77  65  66 MISG      29.89F
MONTPELIER     CLEAR     74  66  76 SW3       29.96F
BURLINGTON     PTCLDY    83  64  52 S5        29.87F
$$

MAZ007-012-024-CTZ003-RIZ002-NYZ038-NYZ072-020000-
SOUTHERN NEW ENGLAND AND NY

CITY           SKY/WX    TMP DP  RH WIND       PRES   REMARKS
BOSTON         PTCLDY    79  70  74 E3        29.90F
WORCESTER      CLEAR     79  69  71 SW3       29.96F
NANTUCKET      CLEAR     70  68  93 SW8       29.95S
PROVIDENCE     PTCLDY    82  70  66 SW9       29.92S
HARTFORD       PTCLDY    85  67  54 SW5       29.90S
ALBANY         MOCLDY    82  67  60 SE3       29.90F
NEW YORK CITY  MOCLDY    83  72  69 S9        29.91F
$$

ANZ081-ANZ082-ANZ150-NHZ014-MEZ023>029-020000-
COASTAL MARINE OBSERVATIONS

STATION/POSITION TIME  TEMP    WIND        PRES    WAVE
                       AIR SEA DIR/SP/G            HT/PER
                 (UTC) (F)     (DEG/KT/KT) (MB)    (FT/S)
MATINICUS ROCK   2200          200/ 12/ 12 1012.5S
PORTLAND WX BUOY 2250   67 63  210/  6/  6 1012.5R   2/ 6
WELLS            2200   71 58  160/  6/  8 1012.0F
ISLE OF SHOALS   2200   72     160/ 14/ 14 1012.3F
JEFFREYS LEDGE   2221      66                N/A     2/ 9
CASHES LEDGE BUO 2250   68 66              1012.3F   3/ 6
$$

.............KEY..............
   WCI - WIND CHILL
   TC  - TEMPERATURE IN CELSIUS
   VSB - VISIBILITY IN MILES
   HX  - HEAT INDEX
   FAIR- INDICATES FEW OR NO CLOUDS BELOW 12,000 FT, WITH NO
         SIGNIFICANT WEATHER AND/OR OBSTRUCTIONS TO VISIBILITY.





USA.gov is the U.S. government's official web portal to all federal, state and local government web resources and services.